This is the latest recevied weather packets stored in our database for station/object DH1FR-13. If no packets are shown the sender has not sent any weather packets the latest 10 day(s).
| Time | Temp. | Humidity | Pressure | Rain* | Wind** | Luminosity | Snow |
|---|---|---|---|---|---|---|---|
| 1787626200 | 10.56° C | 92% | 1018.1 hPa | 0 mm | 0 m/s | - | - |
| 1787625601 | 10.56° C | 92% | 1018.1 hPa | 0 mm | 0 m/s | - | - |
| 1787625001 | 10.56° C | 92% | 1018.1 hPa | 0 mm | 0 m/s | - | - |
| 1787624400 | 10.56° C | 92% | 1018.4 hPa | 0 mm | 0 m/s | - | - |
| 1787623800 | 10° C | 93% | 1018.2 hPa | 0 mm | 0 m/s | - | - |
| 1787623201 | 10° C | 93% | 1018.3 hPa | 0 mm | 0 m/s | - | - |
| 1787622600 | 10° C | 93% | 1018 hPa | 0 mm | 0 m/s | - | - |
| 1787622000 | 10° C | 92% | 1018.2 hPa | 0 mm | 0 m/s | - | - |
| 1787621400 | 10° C | 91% | 1018.3 hPa | 0 mm | 0 m/s | - | - |
| 1787620801 | 10° C | 90% | 1018.5 hPa | 0 mm | 0 m/s | - | - |
| 1787620201 | 10.56° C | 89% | 1018.7 hPa | 0 mm | 0 m/s | - | - |
| 1787619601 | 11.11° C | 89% | 1018.7 hPa | 0 mm | 0 m/s | - | - |
| 1787619001 | 11.11° C | 89% | 1018.7 hPa | 0 mm | 0 m/s | - | - |
| 1787618400 | 11.11° C | 88% | 1019 hPa | 0 mm | 0 m/s | - | - |
| 1787617801 | 11.67° C | 87% | 1019 hPa | 0 mm | 0 m/s | - | - |
| 1787617201 | 12.22° C | 85% | 1019.1 hPa | 0 mm | 0 m/s | - | - |
| 1787616600 | 12.22° C | 85% | 1019.2 hPa | 0 mm | 0 m/s | - | - |
| 1787616000 | 12.22° C | 85% | 1019 hPa | 0 mm | 0 m/s | - | - |
| 1787615401 | 12.78° C | 83% | 1019.3 hPa | 0 mm | 0 m/s | - | - |
| 1787614801 | 12.78° C | 82% | 1019.4 hPa | 0 mm | 0 m/s | - | - |
| 1787614200 | 12.78° C | 81% | 1019.9 hPa | 0 mm | 0 m/s | - | - |
| 1787613601 | 13.33° C | 81% | 1019.5 hPa | 0 mm | 0 m/s | - | - |
| 1787613000 | 12.22° C | 85% | 1020 hPa | 0 mm | 0 m/s | - | - |
| 1787612400 | 12.22° C | 86% | 1019.9 hPa | 0 mm | 0 m/s | - | - |
| 1787611800 | 12.22° C | 86% | 1019.9 hPa | 0 mm | 0 m/s | - | - |
* Rain latest hour (hover to see other rain measurements)
** Current wind speed in m/s (hover to see current wind gust speed)